This is the latest recevied weather packets stored in our database for station/object AB0TJ. If no packets are shown the sender has not sent any weather packets the latest 10 day(s).
| Time | Temp. | Humidity | Pressure | Rain* | Wind** | Luminosity | Snow |
|---|---|---|---|---|---|---|---|
| 1777790979 | 10° C | 41% | 1018.1 hPa | 0 mm | - | 0 W/m² | - |
| 1777790484 | 9.44° C | 42% | 1018.1 hPa | 0 mm | - | 0 W/m² | - |
| 1777789958 | 9.44° C | 42% | 1018.3 hPa | 0 mm | - | 0 W/m² | - |
| 1777789404 | 10° C | 43% | 1017.9 hPa | 0 mm | - | 0 W/m² | - |
| 1777788804 | 10° C | 45% | 1018.2 hPa | 0 mm | - | 0 W/m² | - |
| 1777788324 | 10° C | 44% | 1017.8 hPa | 0 mm | - | 0 W/m² | - |
| 1777787739 | 10° C | 45% | 1018 hPa | 0 mm | - | 0 W/m² | - |
| 1777787204 | 10° C | 45% | 1017.9 hPa | 0 mm | - | 0 W/m² | - |
| 1777786664 | 10.56° C | 44% | 1017.7 hPa | 0 mm | - | 0 W/m² | - |
| 1777786079 | 10.56° C | 42% | 1017.8 hPa | 0 mm | - | 0 W/m² | - |
| 1777785524 | 11.11° C | 42% | 1017.6 hPa | 0 mm | - | 0 W/m² | - |
| 1777785033 | 11.11° C | 40% | 1017.6 hPa | 0 mm | - | 0 W/m² | - |
| 1777784462 | 11.67° C | 39% | 1017.4 hPa | 0 mm | - | 0 W/m² | - |
| 1777783919 | 11.67° C | 38% | 1017.3 hPa | 0 mm | - | 0 W/m² | - |
| 1777783390 | 12.22° C | 38% | 1017.4 hPa | 0 mm | - | 0 W/m² | - |
| 1777782814 | 12.22° C | 36% | 1017.3 hPa | 0 mm | - | 0 W/m² | - |
| 1777782323 | 12.78° C | 35% | 1017.5 hPa | 0 mm | - | 0 W/m² | - |
| 1777781829 | 12.78° C | 35% | 1017.3 hPa | 0 mm | - | 0 W/m² | - |
| 1777781314 | 13.33° C | 34% | 1017.1 hPa | 0 mm | - | 0 W/m² | - |
| 1777780753 | 13.89° C | 33% | 1017 hPa | 0 mm | - | 0 W/m² | - |
| 1777780209 | 13.89° C | 32% | 1017 hPa | 0 mm | - | 0 W/m² | - |
| 1777779649 | 14.44° C | 33% | 1017.1 hPa | 0 mm | - | 0 W/m² | - |
| 1777779052 | 15° C | 30% | 1016.8 hPa | 0 mm | - | 0 W/m² | - |
| 1777778553 | 15° C | 29% | 1016.9 hPa | 0 mm | - | 0 W/m² | - |
| 1777778029 | 15.56° C | 29% | 1016.6 hPa | 0 mm | - | 0 W/m² | - |
* Rain latest hour (hover to see other rain measurements)
** Current wind speed in m/s (hover to see current wind gust speed)